Home > Time Zones > World Clock > Weather > Italy > Genoa > Past weeks

Flag for Italy Weather past 2 weeks in Genoa, Italy

Now
59 °F

Passing clouds.


Feels Like: 57 °F
Forecast: 55 / 61 °F
Wind: 10 mph from Southwest

Location: Genova / Sestri

Current Time: Dec 22, 2014 at 5:40:34 PM

Latest Report: Dec 22, 2014 at 4:50 PM


Visibility: N/A

Pressure: 30.39 "Hg

Humidity: 77%

Dew point: 52 °F

Location of GenoaLocation

Historic Weather in Genoa — Graph

°F

Genoa temperature yesterday

Maximum temperature yesterday: 63 °F (at 12:50 PM)
Minimum temperature yesterday: 52 °F (at 6:50 AM)
Average temperature yesterday: 56 °F

Past Weeks' High & Low Weather Summary

 TemperatureHumidityPressure
High63 °F (Dec 18, 11:50 AM)94% (Dec 14, 1:20 PM)30.45 "Hg (Dec 14, 1:20 PM)
Low43 °F (Dec 10, 7:50 AM)28% (Dec 10, 2:50 PM)29.77 "Hg (Dec 16, 4:50 PM)
Average54 °F74%30.10 "Hg
* Reported Dec 7 4:20 PM — Dec 22 4:20 PM, Genoa, Weather by CustomWeather, © 2014

Note: Actual official high and low records may vary slightly from our data, if they occured in-between our weather recording intervals... More about our weather records

Advertising

Genoa weather history for previous 24 hours

 ConditionsComfort  
Time TempWeatherWind HumidityBarometerVisibility
4:20 PM
Dec 22
59 °FPartly sunny.10 mph72%30.39 "HgN/A
3:50 PM59 °FPartly sunny.9 mph72%30.39 "HgN/A
3:20 PM59 °FPartly sunny.10 mph72%30.39 "HgN/A
2:50 PM61 °FPartly sunny.12 mph68%30.39 "HgN/A
2:20 PM59 °FPartly sunny.10 mph77%30.39 "HgN/A
1:50 PM59 °FPartly sunny.10 mph77%30.42 "HgN/A
1:20 PM59 °FPartly sunny.8 mph77%30.42 "HgN/A
12:50 PM59 °FPartly sunny.9 mph77%30.42 "HgN/A
12:20 PM61 °FScattered clouds.6 mph77%30.42 "HgN/A
11:50 AM57 °FPartly sunny.15 mph82%30.45 "HgN/A
11:20 AM57 °FPartly sunny.15 mph82%30.45 "HgN/A
10:50 AM57 °FPartly sunny.14 mph82%30.45 "HgN/A
10:20 AM57 °FPartly sunny.8 mph77%30.45 "HgN/A
9:50 AM55 °FScattered clouds.7 mph82%30.45 "HgN/A
9:20 AM54 °FScattered clouds.7 mph88%30.45 "HgN/A
8:50 AM52 °FScattered clouds.3 mph88%30.42 "HgN/A
8:20 AM52 °FScattered clouds.3 mph82%30.42 "HgN/A
7:50 AM50 °FPassing clouds.6 mph82%30.42 "HgN/A
7:20 AM50 °FPassing clouds.5 mph82%30.42 "HgN/A
6:50 AM50 °FPassing clouds.6 mph76%30.42 "HgN/A
6:20 AM50 °FPassing clouds.5 mph76%30.42 "HgN/A
5:50 AM50 °FPassing clouds.6 mph76%30.42 "HgN/A
5:20 AM50 °FPassing clouds.6 mph76%30.42 "HgN/A
4:50 AM50 °FClear.6 mph76%30.42 "Hg10 mi
4:20 AM48 °FClear.6 mph76%30.42 "Hg10 mi
3:50 AM50 °FClear.6 mph71%30.42 "Hg10 mi
3:20 AM50 °FClear.6 mph71%30.42 "Hg10 mi
2:50 AM50 °FClear.6 mph71%30.42 "Hg10 mi
2:20 AM50 °FClear.6 mph71%30.42 "Hg10 mi
1:50 AM50 °FClear.5 mph71%30.42 "Hg10 mi
1:20 AM52 °FPassing clouds.5 mph62%30.42 "HgN/A
12:50 AM50 °FClear.6 mph76%30.42 "Hg10 mi
12:20 AM52 °FClear.6 mph67%30.45 "Hg10 mi
11:50 PM
Dec 21
52 °FClear.5 mph67%30.45 "Hg10 mi
11:20 PM52 °FClear.6 mph67%30.45 "Hg10 mi
10:20 PM52 °FClear.6 mph67%30.45 "Hg10 mi
9:50 PM52 °FPassing clouds.3 mph67%30.45 "HgN/A
9:20 PM52 °FClear.6 mph67%30.42 "Hg10 mi
8:50 PM52 °FClear.5 mph67%30.42 "Hg10 mi
8:20 PM54 °FClear.6 mph63%30.42 "Hg10 mi
7:50 PM54 °FClear.5 mph63%30.42 "Hg10 mi
7:20 PM54 °FClear.6 mph63%30.42 "Hg10 mi
6:50 PM54 °FClear.6 mph67%30.42 "Hg10 mi
6:20 PM55 °FPassing clouds.6 mph59%30.39 "HgN/A
5:50 PM55 °FPassing clouds.7 mph55%30.39 "HgN/A
5:20 PM57 °FPassing clouds.7 mph55%30.39 "HgN/A
Weather by CustomWeather, © 2014

See weather overviewHow to use our weather pages